Home > Weather > Stockport > Past weeks

Flag for United Kingdom Past Weather in Stockport, England, United Kingdom — Yesterday and Last 2 Weeks

Now
61 °F

Scattered clouds.


Feels Like: 61 °F
Forecast: 51 / 60 °F
Wind: 15 mph from Northwest

Location: Manchester Airport

Current Time: Jun 27, 2016 at 2:14:48 PM

Latest Report: Jun 27, 2016 at 1:20 PM


Visibility: N/A

Pressure: 30.07 "Hg

Humidity: 55%

Dew Point: 45 °F

Location of StockportLocation

Past Weather in Stockport — Graph

°F

Stockport Temperature Yesterday

Maximum temperature yesterday: 63 °F (at 1:50 PM)
Minimum temperature yesterday: 54 °F (at 3:50 AM)
Average temperature yesterday: 57 °F

High & Low Weather Summary for the Past Weeks

 TemperatureHumidityPressure
High72 °F (Jun 23, 3:50 PM)100% (Jun 15, 4:50 AM)30.21 "Hg (Jun 15, 4:50 AM)
Low50 °F (Jun 19, 12:20 AM)47% (Jun 23, 3:50 PM)29.33 "Hg (Jun 14, 5:20 PM)
Average59 °F81%29.85 "Hg
* Reported Jun 12 12:20 PM — Jun 27 12:50 PM, Stockport, Weather by CustomWeather, © 2016

Note: Actual official high and low records may vary slightly from our data, if they occured in-between our weather recording intervals... More about our weather records

Advertising

Stockport Weather History for the Previous 24 Hours

Scroll right to see more
 ConditionsComfort  
Time TempWeatherWind HumidityBarometerVisibility
12:50 PM
Mon, Jun 27
61 °FScattered clouds.14 mph59%30.07 "HgN/A
12:20 PM61 °FScattered clouds.14 mph59%30.07 "HgN/A
11:50 AM61 °FScattered clouds.13 mph55%30.07 "HgN/A
11:20 AM59 °FScattered clouds.14 mph59%30.04 "HgN/A
10:50 AM57 °FScattered clouds.14 mph67%30.04 "HgN/A
10:20 AM59 °FScattered clouds.15 mph68%30.04 "HgN/A
9:50 AM57 °FScattered showers. Partly sunny.15 mph72%30.04 "HgN/A
9:20 AM57 °FPartly sunny.9 mph77%30.04 "HgN/A
8:50 AM57 °FPartly sunny.12 mph77%30.01 "HgN/A
8:20 AM57 °FPartly sunny.13 mph77%30.01 "HgN/A
7:50 AM55 °FPartly sunny.10 mph82%30.01 "HgN/A
7:20 AM55 °FPartly sunny.9 mph88%30.01 "HgN/A
6:50 AM55 °FPartly sunny.9 mph88%29.98 "HgN/A
6:20 AM55 °FPartly sunny.8 mph88%29.98 "HgN/A
5:50 AM55 °FBroken clouds.8 mph88%29.98 "HgN/A
5:20 AM55 °FRain. Partly cloudy.8 mph94%29.98 "HgN/A
4:50 AM55 °FPassing clouds.7 mph94%29.98 "HgN/A
4:20 AM55 °FPartly cloudy.8 mph94%29.95 "HgN/A
3:50 AM55 °FPassing clouds.8 mph94%29.95 "HgN/A
3:20 AM55 °FPassing clouds.10 mph94%29.95 "HgN/A
2:50 AM55 °FPassing clouds.12 mph94%29.95 "HgN/A
2:20 AM55 °FPassing clouds.10 mph94%29.95 "HgN/A
1:50 AM55 °FPartly cloudy.13 mph94%29.95 "Hg2 mi
1:20 AM57 °FLight rain. Mostly cloudy.14 mph94%29.92 "Hg2 mi
12:50 AM59 °FDrizzle. Mostly cloudy.12 mph94%29.92 "Hg2 mi
12:20 AM59 °FRain showers. Mostly cloudy.12 mph94%29.92 "Hg2 mi
11:50 PM
Sun, Jun 26
59 °FRain showers. Mostly cloudy.13 mph94%29.92 "Hg3 mi
11:20 PM59 °FPartly cloudy.15 mph94%29.92 "Hg3 mi
10:50 PM57 °FRain showers. Mostly cloudy.10 mph100%29.92 "Hg3 mi
10:20 PM57 °FDrizzle. Cloudy.9 mph100%29.92 "HgN/A
9:50 PM57 °FMostly cloudy.9 mph94%29.92 "Hg6 mi
9:20 PM57 °FPartly sunny.9 mph94%29.92 "HgN/A
8:50 PM57 °FDrizzle. Fog.8 mph94%29.95 "Hg2 mi
8:20 PM57 °FDrizzle. Fog.8 mph94%29.95 "Hg3 mi
7:50 PM57 °FDrizzle. Fog.8 mph94%29.95 "Hg3 mi
7:20 PM57 °FDrizzle. Partly sunny.9 mph94%29.95 "Hg3 mi
6:50 PM57 °FScattered showers. Broken clouds.9 mph94%29.98 "HgN/A
6:20 PM57 °FLight rain. Partly sunny.9 mph88%29.98 "HgN/A
5:50 PM57 °FLight rain. Partly sunny.8 mph94%29.98 "HgN/A
5:20 PM57 °FLight rain. Partly sunny.7 mph88%29.98 "HgN/A
4:50 PM59 °FLight rain. Partly sunny.6 mph82%30.01 "HgN/A
4:20 PM57 °FLight rain. Partly sunny.6 mph88%30.01 "HgN/A
3:50 PM59 °FLight rain. Partly sunny.8 mph77%30.01 "HgN/A
3:20 PM59 °FLight rain. Passing clouds.9 mph72%30.01 "HgN/A
2:50 PM61 °FScattered clouds.10 mph68%30.01 "HgN/A
2:20 PM61 °FPartly sunny.10 mph72%30.01 "HgN/A
Weather by CustomWeather, © 2016

See weather overviewHow to use our weather pages